Torna al catalogo

FENGYUN 1C DEB

AttivoSSO
NORAD 31467·DEBRIS·🇨🇳 China

Lanciato May 10, 1999 da Taiyuan Satellite Launch Center

Loading…

Prossimi Passaggi (prossime 24 ore)

TLE

AggiornatoSource: Space-Track

Epoca: Sep 14, 2026, 09:19 UTC

1 31467U 99025BVF 26257.38873025  .00002047  00000-0  12540-2 0  9991
2 31467  98.5802 114.1092 0152238 310.8050  47.9993 14.01293934 36063

Traccia FENGYUN 1C DEB in tempo reale con AllMySat

Download on the App Store